Regional Weather Roundup
Issued by NWS

Home | Current Version | Previous Version | Text Only | Print | Product List | Glossary Off
Versions: 1 2 3 4 5 6 7 8 9 10 11 12 13 14 15 16 17 18 19 20 21 22 23 24 25 26 27 28 29 30 31 32 33 34 35 36 37 38 39 40 41 42 43 44 45 46 47 48 49 50

003
ASUS43 KMPX 220301
RWRMN
WEATHER ROUNDUP FOR MINNESOTA
NATIONAL WEATHER SERVICE TWIN CITIES/CHANHASSEN MN
900 PM CST TUE NOV 21 2017


NOTE: "FAIR" INDICATES FEW OR NO CLOUDS BELOW 12,000 FEET WITH NO
SIGNIFICANT WEATHER AND/OR OBSTRUCTIONS TO VISIBILITY. N/A MEANS
CURRENT SKY AND/OR WEATHER CONDITIONS ARE NOT AVAILABLE.

MNZ060>063-068>070-220400-
   Twin Cities Metro

CITY           SKY/WX    TMP DP  RH WIND       PRES   REMARKS
TWIN CITIES    CLEAR     20  11  68 NW12      30.30R WCI   8
ST PAUL        CLEAR     21  10  62 NW15      30.31R WCI   8
CRYSTAL        CLEAR     20   8  60 NW12      30.29S WCI   8
BLAINE         CLEAR     21  12  68 NW12      30.28S WCI   9
LAKEVILLE      CLEAR     19  12  73 NW12      30.28S WCI   7
EDEN PRAIRIE   CLEAR     21  11  65 NW9       30.28S WCI  11
SOUTH ST PAUL  CLEAR     21  10  61 NW14      30.29R WCI   8
LAKE ELMO      FAIR      21  12  68 NW12      30.28S WCI   9
$$
MNZ001>005-007-008-013>017-022>024-027-028-220400-
   Northwest Minnesota

CITY           SKY/WX    TMP DP  RH WIND       PRES   REMARKS
BEMIDJI        CLOUDY    10   7  86 W8        30.25S WCI  -2
HALLOCK        CLOUDY    12   9  85 CALM      30.29S
ROSEAU         CLOUDY    16   9  73 W7        30.25F WCI   6
WARROAD        CLOUDY    12   9  85 W7        30.24F WCI   2
CROOKSTON      CLOUDY    14  10  85 W6        30.31F WCI   5
FOSSTON        CLOUDY     9   5  85 SW5       30.28F WCI   0
DETROIT LAKES  CLOUDY    16  12  86 NW7       30.29F WCI   6
MOORHEAD       CLOUDY    16   9  73 CALM      30.35S
PARK RAPIDS    CLOUDY    12   7  80 NW6       30.26F WCI   3
MAHNOMEN       FAIR      12   8  84 W6        30.29F WCI   3
$$
MNZ006-009>011-018-025>026-220400-
   North Central Minnesota

CITY           SKY/WX    TMP DP  RH WIND       PRES   REMARKS
BAUDETTE       CLOUDY    12   7  80 W6        30.22S WCI   3
FLAG ISLAND    CLEAR     12   7  79 W9        30.22S WCI   0
INTL FALLS       N/A     11   7  84 W6        30.21S WCI   1
WASKISH        CLEAR     16  10  79 W10       30.24F WCI   3
BIG FORK       CLEAR     16   9  73 W3        30.22S
LONGVILLE      CLOUDY    16   9  73 W6        30.26F WCI   7
GRAND RAPIDS   FLURRIES  17  10  74 NW12      30.26R WCI   4
CRANE LAKE     LGT SNOW  16  12  86 W5        30.21F WCI   9
ORR            LGT SNOW  14   9  79 W8        30.17S WCI   3
COOK           FLURRIES  14  10  85 W9        30.20F WCI   2
WALKER         FAIR      13   8  81 W7        30.26S WCI   2
$$
MNZ012-019>021-037-220400-
   Northeast Minnesota

CITY           SKY/WX    TMP DP  RH WIND       PRES   REMARKS
DULUTH         FLURRIES  15   8  73 NW9       30.20S WCI   3
ELY            LGT SNOW  16  10  79 NW8       30.16S WCI   5
HIBBING        CLOUDY    14   8  77 NW9       30.21S WCI   2
EVELETH        FLURRIES  15   8  72 W9        30.22R WCI   3
DULUTH HARBOR  MOCLDY    21  10  63 NW7       30.28S WCI  13
TWO HARBORS    FLURRIES  21  12  68 NW7G17    30.20S WCI  13
SILVER BAY     CLOUDY    19  10  68 W6        30.18S WCI  11
G MARAIS ARPRT FLURRIES  14   7  73 NW7G18    30.08R WCI   4
$$
MNZ029>031-032-039>041-046>048-054>057-064-220400-
   West Central Minnesota

CITY           SKY/WX    TMP DP  RH WIND       PRES   REMARKS
FERGUS FALLS   PTCLDY    14   9  79 NW6       30.36F WCI   5
WHEATON        CLOUDY    16   9  73 NW6       30.36F WCI   7
MORRIS         CLOUDY    18  10  73 NW8       30.32F WCI   7
ALEXANDRIA     CLOUDY    17  10  74 NW9       30.30S WCI   6
ELBOW LAKE     FAIR      16  10  77 W9        30.33S HAZE    WCI   5
WADENA         PTCLDY    12   9  85 W5        30.29F WCI   4
GLENWOOD       CLOUDY    18  10  73 NW10G16   30.31S WCI   6
APPLETON       CLOUDY    19  10  68 NW5       30.34F WCI  13
BENSON         CLOUDY    16   9  73 NW5       30.35F WCI   9
ORTONVILLE     CLOUDY    18   9  68 MISG      30.34F
MADISON        CLOUDY    18  10  73 W5        30.36F WCI  11
WILLMAR        FAIR      19  12  73 NW9       30.34S WCI   9
$$
MNZ033>034-036-042>043-049>051-058-059-220400-
   Central Minnesota

CITY           SKY/WX    TMP DP  RH WIND       PRES   REMARKS
ST CLOUD       CLOUDY    17   9  70 NW12      30.31R WCI   4
SAUK CENTRE    FAIR      17  10  73 NW12      30.31S WCI   4
PAYNESVILLE    CLOUDY    18  13  81 NW7       30.32S WCI   9
AITKIN         LGT RAIN  16   9  73 NW6       30.26S WCI   7
PINE RIVER     CLOUDY    12   7  79 W3        30.30S
BRAINERD       CLOUDY    17   8  67 NW10      30.28F WCI   5
STAPLES        PTCLDY    12   7  79 W6        30.29S WCI   3
LONG PRAIRIE   FAIR      16  10  79 W12       30.29S WCI   3
LITTLE FALLS   CLOUDY    18   5  57 CALM      30.30S
LITCHFIELD     CLOUDY    19  12  73 NW12      30.31F WCI   7
BUFFALO        CLEAR     19  11  70 NW12      30.32R WCI   7
MAPLE LAKE     CLEAR     20  13  75 NW8G18    30.32S WCI  10
HUTCHINSON     CLOUDY    21  13  71 NW10      30.32S WCI  10
$$
MNZ037-044-045-052-053-220400-
   East Central Minnesota

CITY           SKY/WX    TMP DP  RH WIND       PRES   REMARKS
PRINCETON      CLEAR     18  10  73 NW7       30.29S WCI   8
MORA           CLOUDY    19  10  68 N5        30.30R WCI  13
CAMBRIDGE      PTCLDY    19   9  63 W10       30.29S WCI   8
RUSH CITY      CLEAR     18   9  68 N10       30.29S WCI   6
MOOSE LAKE     CLOUDY    18  10  73 NW7       30.25S WCI   8
HINCKLEY       FAIR      19  10  68 NW8G16    30.28S WCI   9
CLOQUET        FLURRIES  16   7  67 W7        30.23S WCI   6
MCGREGOR       CLOUDY    19  10  68 NW7       30.27R WCI  10
$$
MNZ071>073-080-081-089-090-097-098-220400-
   Southwest Minnesota

CITY           SKY/WX    TMP DP  RH WIND       PRES   REMARKS
MONTEVIDEO     CLOUDY    18   9  68 N7        30.35F WCI   8
GRANITE FALLS  CLOUDY    20  12  72 NW9       30.36F WCI   9
CANBY          CLOUDY    17  10  72 NW5       30.36F WCI  10
MARSHALL       CLOUDY    17   9  70 NW9       30.35F WCI   6
REDWOOD FALLS  CLOUDY    19   9  65 NW8       30.34F WCI   9
OLIVIA         CLOUDY    21  12  68 NW8       30.33F WCI  12
PIPESTONE      CLOUDY    18   7  62 NW6       30.33S WCI   9
WINDOM           N/A     19   5  53 NW8       30.32F WCI   9
WORTHINGTON    CLOUDY    15   8  73 W8        30.33F WCI   4
JACKSON        CLOUDY    19   9  63 NW10      30.32F WCI   8
SLAYTON        CLOUDY    16   8  72 NW6       30.33F WCI   7
$$
MNZ065>067-074>077-082>085-091>093-220400-
   South Central Minnesota

CITY           SKY/WX    TMP DP  RH WIND       PRES   REMARKS
MANKATO        CLEAR     19  11  70 NW12      30.33R WCI   7
NEW ULM        CLOUDY    19   9  63 CALM      30.33S
ST JAMES       CLOUDY    19  10  68 W10       30.34F WCI   8
FAIRMONT       CLOUDY    21  11  65 NW14      30.33R WCI   8
GLENCOE        CLEAR     21  14  72 NW12      30.31S WCI   9
FARIBAULT      CLEAR     19  12  73 NW9       30.29S WCI   9
OWATONNA       CLEAR     19  12  73 NW12      30.29S WCI   7
WASECA         CLEAR     19  12  73 NW12      30.32R WCI   7
ALBERT LEA     CLEAR     19  10  68 NW12G17   30.29R WCI   7
$$
MNZ078>079-086>088-094>096-220400-
   Southeast Minnesota

CITY           SKY/WX    TMP DP  RH WIND       PRES   REMARKS
ROCHESTER      CLEAR     20  12  71 NW14      30.25R WCI   7
RED WING       CLEAR     23   7  50 NW7       30.27R WCI  15
STANTON        CLEAR     22  13  67 NW10      30.28R WCI  11
DODGE CENTER   PTCLDY    19  10  68 NW14      30.25R WCI   6
WINONA           N/A     27  14  59 NW7       30.26S WCI  19
PRESTON        CLEAR     20  11  68 NW13      30.25R WCI   8
$$
ABBREVIATIONS USED IN REMARKS
   TC - TEMPERATURES IN CELSIUS
  WCI - WIND CHILL INDEX
   HX - HEAT INDEX
  VSB - VISIBILITY
$$




USA.gov is the U.S. government's official web portal to all federal, state and local government web resources and services.